Simultaneous Nadir Overpasses (SNOs) Predictions

Prediction of SNOs between AQUA and NOAA-19 Satellite Orbit:

Table of predicted SNOs for the next 14.0 days since TLE Epoch: 2/17/2012
Index Date (AQUA) Time (AQUA) AQUA Lat,Lon Date (NOAA-19) Time (NOAA-19) NOAA-19 Lat,Lon Distance(km) Time Diff (sec)
1 02/18/2012 11:06:30 -53.79, 48.53 02/18/2012 11:06:42 -53.79, 48.51 1.00 12
2 02/20/2012 15:03:25 46.35, 166.64 02/20/2012 15:02:32 46.35, 166.69 3.37 53
3 02/20/2012 15:49:43 -57.62, -20.50 02/20/2012 15:50:23 -57.62, -20.48 1.05 40
4 02/22/2012 19:46:43 49.91, 96.99 02/22/2012 19:46:19 49.91, 97.00 0.89 24
5 02/22/2012 20:33:13 -60.41, -89.81 02/22/2012 20:34:22 -60.41, -89.78 1.45 69
6 02/25/2012 00:29:55 53.79, 27.68 02/25/2012 00:30:00 53.79, 27.69 0.65 5
7 02/27/2012 04:27:00 -46.03, 145.66 02/27/2012 04:26:08 -46.02, 145.68 1.89 52
8 02/27/2012 05:13:23 56.69, -41.87 02/27/2012 05:13:58 56.68, -41.88 0.78 35
9 02/29/2012 09:10:03 -50.41, 76.34 02/29/2012 09:09:40 -50.41, 76.36 1.19 23




NCC Satellite Simultaneous Nadir Overpasses (SNOs) Prediction Service
